TimeCST,TemperatureF,Dew PointF,Humidity,Sea Level PressureIn,VisibilityMPH,Wind Direction,Wind SpeedMPH,Gust SpeedMPH,PrecipitationIn,Events,Conditions,WindDirDegrees,DateUTC
12:00 AM,-26,-35,45,30.25,5,SE,5.8,,,Snow,Snow,140,2012-12-27 06:00:00
12:00 AM,-25.6,-34.6,63,30.25,5.0,SSE,4.6,-,N/A,,Ice Crystals,150,2012-12-27 06:00:00
1:00 AM,-25.6,-34.6,63,30.26,3.0,SE,4.6,-,N/A,,Ice Crystals,130,2012-12-27 07:00:00
2:00 AM,-27.4,-36.4,62,30.26,3.0,Calm,Calm,-,N/A,,Ice Crystals,0,2012-12-27 08:00:00
3:00 AM,-29.2,-40.0,56,30.27,3.0,SSE,3.5,-,N/A,,Ice Crystals,150,2012-12-27 09:00:00
4:00 AM,-32.8,-41.8,62,30.27,5.0,Calm,Calm,-,N/A,,Ice Crystals,0,2012-12-27 10:00:00
5:00 AM,-34.6,-41.8,68,30.27,15.0,Calm,Calm,-,N/A,,Partly Cloudy,0,2012-12-27 11:00:00
6:00 AM,-32,-41,42,30.27,15,Calm,Calm,,,Snow,Snow,,2012-12-27 12:00:00
6:00 AM,-32.8,-41.8,62,30.27,15.0,Calm,Calm,-,N/A,,Clear,0,2012-12-27 12:00:00
7:00 AM,-32.8,-41.8,62,30.27,15.0,ESE,2.3,-,N/A,,Clear,120,2012-12-27 13:00:00
8:00 AM,-36.4,-43.6,67,30.27,15.0,Calm,Calm,-,N/A,,Clear,0,2012-12-27 14:00:00
9:00 AM,-34.6,-41.8,68,30.26,15.0,Calm,Calm,-,N/A,,Clear,0,2012-12-27 15:00:00
10:00 AM,-38.2,-45.4,67,30.27,15.0,ESE,2.3,-,N/A,,Clear,110,2012-12-27 16:00:00
11:00 AM,-36.4,-43.6,67,30.26,15.0,Calm,Calm,-,N/A,,Clear,0,2012-12-27 17:00:00
12:00 PM,-36.4,-43.6,67,30.26,15.0,West,2.3,-,N/A,,Clear,270,2012-12-27 18:00:00
1:00 PM,-38.2,-45.4,67,30.26,15.0,Calm,Calm,-,N/A,,Clear,0,2012-12-27 19:00:00
2:00 PM,-27.4,-43.6,42,30.25,15.0,ESE,3.5,-,N/A,,Clear,110,2012-12-27 20:00:00
3:00 PM,-36.4,-45.4,61,30.25,15.0,Calm,Calm,-,N/A,,Clear,0,2012-12-27 21:00:00
4:00 PM,-36.4,-43.6,67,30.25,15.0,Calm,Calm,-,N/A,,Clear,0,2012-12-27 22:00:00
5:00 PM,-40.0,-47.2,67,30.25,15.0,Calm,Calm,-,N/A,,Clear,0,2012-12-27 23:00:00
6:00 PM,-39,-46,48,30.25,15,Calm,Calm,,,Snow,Snow,,2012-12-28 00:00:00
6:00 PM,-40.0,-45.4,74,30.25,15.0,Calm,Calm,-,N/A,,Clear,0,2012-12-28 00:00:00
7:00 PM,-40.0,-45.4,74,30.24,15.0,Calm,Calm,-,N/A,,Clear,0,2012-12-28 01:00:00
8:00 PM,-40.0,-45.4,74,30.22,15.0,SE,2.3,-,N/A,,Clear,130,2012-12-28 02:00:00
9:00 PM,-40.0,-45.4,74,30.22,15.0,Calm,Calm,-,N/A,,Clear,0,2012-12-28 03:00:00